Change the Weather History Date:

Tuesday, June 18, 2013

  Actual Average Record
Temperature  
Mean Temperature 60 °F -  
Max Temperature 71 °F 74 °F 100 °F (2008)
Min Temperature 51 °F 51 °F 42 °F (1979)
Degree Days  
Heating Degree Days 4    
Growing Degree Days 10 (Base 50)    
Moisture  
Dew Point 51 °F    
Average Humidity 82    
Maximum Humidity 100    
Minimum Humidity 51    
Precipitation  
Precipitation 0.00 in - - ()
Sea Level Pressure  
Sea Level Pressure 29.97 in    
Wind  
Wind Speed 12 mph (NW)    
Max Wind Speed 25 mph    
Max Gust Speed 32 mph    
Visibility 8 miles    
Events      
Averages and records for this station are not official NWS values.
T = Trace of Precipitation, MM = Missing Value Source: NWS Daily Summary

Daily Weather History Graph

Daily Weather History Graph

Search for Another Location

Airport or City:

Trip Planner

Search our weather history database for the weather conditions in past years. The results will help you decide how hot, cold, wet, or windy it might be!

Date:

Astronomy

Jun. 18, 2013 Rise Set
Actual Time 5:47 AM PDT 8:19 PM PDT
Civil Twilight 5:17 AM PDT 8:49 PM PDT
Nautical Twilight 4:41 AM PDT 9:26 PM PDT
Astronomical Twilight 4:00 AM PDT 10:07 PM PDT
Moon 3:18 PM PDT (6/18) 1:49 AM PDT (6/18)
Length of Visible Light 15h 31m
Length of Day
14h 32m
Waxing Gibbous, 72% of the Moon is Illuminated
Jun 18
Waxing Gibbous
Jun 23
Full
Jun 29
Last Quarter
Jul 8
New
Jul 15
First Quarter

Hourly Weather History & Observations

Time (PDT) Temp. Dew Point Humidity Pressure Visibility Wind Dir Wind Speed Gust Speed Precip Events Conditions
12:56 AM 53.1 °F 51.1 °F 93% 29.99 in 9.0 mi NW 6.9 mph - N/A   Clear
1:56 AM 53.1 °F 51.1 °F 93% 29.98 in 9.0 mi WNW 6.9 mph - N/A   Clear
2:03 AM 53.6 °F 51.8 °F 94% 29.98 in 8.0 mi NW 9.2 mph - N/A   Scattered Clouds
2:14 AM 53.6 °F 51.8 °F 94% 29.98 in 7.0 mi NW 10.4 mph - N/A   Mostly Cloudy
2:27 AM 53.6 °F 51.8 °F 94% 29.98 in 1.8 mi WNW 8.1 mph - N/A   Overcast
2:56 AM 52.0 °F 51.1 °F 97% 29.98 in 0.8 mi WNW 9.2 mph - N/A   Mist
3:03 AM 51.8 °F 51.8 °F 100% 29.98 in 1.2 mi NW 6.9 mph - N/A   Overcast
3:17 AM 51.8 °F 51.8 °F 100% 29.98 in 3.0 mi NW 6.9 mph - N/A   Overcast
3:32 AM 51.8 °F 51.8 °F 100% 29.98 in 2.5 mi NW 9.2 mph - N/A   Overcast
3:40 AM 51.8 °F 51.8 °F 100% 29.98 in 5.0 mi NW 9.2 mph - N/A   Overcast
3:56 AM 52.0 °F 51.1 °F 97% 29.97 in 9.0 mi NW 10.4 mph - N/A   Overcast
4:56 AM 53.1 °F 52.0 °F 96% 29.97 in 5.0 mi NW 11.5 mph - N/A   Overcast
5:56 AM 53.1 °F 51.1 °F 93% 29.98 in 10.0 mi NW 10.4 mph - N/A   Overcast
6:56 AM 53.1 °F 51.1 °F 93% 29.99 in 6.0 mi NW 13.8 mph - N/A   Overcast
7:38 AM 55.4 °F 51.8 °F 88% 30.00 in 10.0 mi NW 13.8 mph - N/A   Scattered Clouds
7:56 AM 55.9 °F 52.0 °F 87% 30.00 in 10.0 mi NW 15.0 mph - N/A   Mostly Cloudy
8:14 AM 57.2 °F 51.8 °F 82% 30.00 in 10.0 mi NW 16.1 mph 21.9 mph N/A   Scattered Clouds
8:56 AM 60.1 °F 52.0 °F 75% 30.00 in 10.0 mi NW 18.4 mph - N/A   Clear
9:56 AM 64.9 °F 52.0 °F 63% 29.98 in 10.0 mi NW 18.4 mph - N/A   Clear
10:56 AM 68.0 °F 52.0 °F 56% 29.98 in 10.0 mi NW 18.4 mph - N/A   Clear
11:56 AM 69.1 °F 51.1 °F 53% 29.98 in 10.0 mi NW 18.4 mph 27.6 mph N/A   Clear
12:56 PM 69.1 °F 51.1 °F 53% 29.97 in 10.0 mi NW 18.4 mph 26.5 mph N/A   Clear
1:56 PM 70.0 °F 51.1 °F 51% 29.96 in 10.0 mi NW 23.0 mph 28.8 mph N/A   Clear
2:56 PM 68.0 °F 51.1 °F 55% 29.96 in 10.0 mi NW 23.0 mph 32.2 mph N/A   Clear
3:56 PM 66.0 °F 50.0 °F 56% 29.96 in 10.0 mi NW 25.3 mph 32.2 mph N/A   Clear
4:56 PM 63.0 °F 51.1 °F 65% 29.95 in 10.0 mi NW 25.3 mph 31.1 mph N/A   Partly Cloudy
5:56 PM 61.0 °F 51.1 °F 70% 29.94 in 10.0 mi NW 21.9 mph 32.2 mph N/A   Clear
6:56 PM 59.0 °F 50.0 °F 72% 29.94 in 10.0 mi NW 19.6 mph 29.9 mph N/A   Clear
7:56 PM 55.9 °F 50.0 °F 80% 29.94 in 10.0 mi NW 17.3 mph - N/A   Partly Cloudy
8:56 PM 54.0 °F 50.0 °F 86% 29.94 in 10.0 mi NW 6.9 mph - N/A   Clear
9:56 PM 55.0 °F 50.0 °F 83% 29.96 in 10.0 mi NNW 10.4 mph - N/A   Clear
10:56 PM 53.1 °F 48.9 °F 86% 29.96 in 9.0 mi WNW 6.9 mph - N/A   Clear
11:56 PM 53.1 °F 48.9 °F 86% 29.95 in 10.0 mi West 5.8 mph - N/A   Clear